Location: Sternwarte auf dem Internationalen Platz Vogelsang IP
(50.5721°N, 6.4398°E)
Time: 10:31:03
(UTC+01:00)

ACS3 Solar Sail - Pass Details

Date: 21 November 2025
Orbit: 888 x 1003 km, 97.3° (Epoch: 07 December)

Event Time Altitude Azimuth Distance (km) Brightness Sun altitude
Rises 05:01:13 0° 7° (N) 3,577 4.9 -27.7°
Reaches altitude 10° 05:03:46 10° 360° (N) 2,647 4.1 -27.3°
Enters shadow 05:06:01 22° 346° (NNW) 1,927 3.2 -27.0°
